Temp
13 13 13 12 12 12 12 12 11 11 11 11 11 11 10 10 10 10 10 10 10 10 10 10 10 10 10 10 11 11 11 12 12 12 13 13 12 12 12 12 11 11 10 10 10 10 10 10 9 9 8 8 8 8 8 8 8 7 7 7 7 7 7 7 6 6 6 6 6
13 13 13 12 12 12 12 11 11 11 11 11 11 10 10 10 10 10 10 10 10 10 10 10 10 10 10 10 11 11 11 11 12 12 12 12 12 12 11 11 11 10 10 10 10 10 10 9 9 9 8 8 8 8 8 7 7 7 7 7 7 7 7 6 6 6 6 6 5
13 12 12 12 12 12 11 11 11 11 11 11 10 10 10 10 10 10 10 10 10 10 10 10 9 9 10 10 10 11 11 11 11 12 12 11 11 11 11 11 10 10 10 10 10 10 9 9 9 9 8 8 8 8 7 7 7 7 7 7 7 6 6 6 6 6 6 6 5
12 12 12 12 12 12 11 11 11 11 11 10 10 10 10 10 10 10 9 9 9 9 9 9 9 9 9 10 10 10 10 11 11 11 11 11 11 10 10 10 10 10 10 10 10 9 9 9 9 8 8 8 8 7 7 7 7 7 7 6 6 6 6 6 6 6 6 6 5
12 12 12 12 12 12 12 11 11 11 10 10 10 10 10 10 9 9 9 9 9 9 9 9 9 9 9 9 10 10 10 10 10 10 10 10 10 10 10 10 10 10 10 9 9 9 9 8 8 8 8 8 7 7 7 7 7 6 6 6 6 6 6 6 6 6 5 5 5
12 12 12 12 12 12 11 11 11 10 10 10 10 9 9 9 9 9 9 9 9 9 9 9 9 9 9 9 9 9 9 9 9 9 9 9 9 9 9 9 9 9 9 9 9 8 8 8 8 8 8 7 7 7 7 7 7 6 6 6 6 6 6 6 5 5 5 5 5
12 12 12 11 11 11 11 11 10 10 10 10 10 9 9 9 9 9 9 9 9 9 9 9 9 9 8 8 9 9 9 9 9 9 9 9 9 9 9 9 9 8 8 8 8 8 8 8 8 7 7 7 7 7 7 6 6 6 6 6 6 6 5 5 5 5 5 5 5
12 12 11 11 11 11 11 10 10 10 10 10 9 9 9 9 9 9 9 9 8 8 9 8 8 8 8 8 8 8 8 8 8 9 9 9 9 9 8 8 8 8 8 8 8 8 8 8 8 7 7 7 7 6 6 6 6 6 6 6 6 5 5 5 5 5 5 4 4
11 11 11 11 11 11 10 10 9 9 9 9 9 9 9 9 9 9 9 8 8 8 8 8 8 8 8 8 8 8 8 8 8 9 9 9 9 8 8 8 8 8 8 8 8 8 8 7 7 7 7 7 6 6 6 6 6 6 6 5 5 5 5 5 5 5 4 4 4
11 11 11 10 10 10 10 9 9 9 9 9 9 9 9 9 9 9 8 8 8 8 8 8 8 8 8 7 7 8 8 8 8 9 9 9 9 8 8 8 8 7 7 8 8 8 7 7 7 7 7 7 6 6 6 6 6 6 5 5 5 5 5 5 4 4 4 4 4
11 10 10 10 10 9 9 9 9 9 9 9 9 9 9 9 9 9 8 8 8 8 8 8 8 8 8 7 7 8 8 8 8 9 9 9 8 8 8 8 8 7 7 7 7 7 7 7 7 7 6 6 6 6 6 5 5 5 5 5 5 5 5 4 4 4 4 4 4
10 10 10 10 9 9 9 9 9 9 9 9 9 9 9 9 9 9 9 8 8 8 8 8 8 8 7 7 7 7 8 8 8 8 8 8 8 8 8 8 8 7 7 7 7 7 7 7 7 6 6 6 6 5 5 5 5 5 5 5 5 4 4 4 4 4 4 4 4
10 10 10 9 9 9 9 9 9 9 9 9 9 9 9 9 9 8 8 8 8 8 8 8 7 7 7 7 7 7 7 8 8 8 8 8 8 8 7 7 7 7 7 7 7 7 7 7 6 6 6 5 5 5 5 5 5 5 5 5 4 4 4 4 4 4 4 4 4
10 10 9 9 9 9 9 9 9 9 9 9 9 9 9 8 8 8 8 8 8 8 7 7 7 7 7 7 7 7 7 8 8 8 8 8 7 7 7 7 7 7 7 7 7 7 6 6 6 6 5 5 5 5 5 5 5 4 4 4 4 4 4 4 4 4 4 4 4
9 9 9 9 9 9 9 9 9 9 9 9 9 8 8 8 8 8 8 8 7 7 7 7 7 6 6 6 6 7 7 7 7 7 7 7 7 7 7 7 7 7 7 6 6 6 6 6 6 5 5 5 5 5 5 5 4 4 4 4 4 4 4 4 4 4 4 4 4
9 9 9 9 9 9 9 9 9 9 9 9 8 8 8 8 8 8 8 7 7 7 7 6 6 6 6 6 6 6 7 7 7 7 7 7 6 7 7 7 7 7 7 6 6 6 6 6 6 5 5 5 5 5 5 5 5 4 4 4 4 4 4 4 4 4 4 4 4
9 9 9 9 9 9 9 9 9 8 8 8 8 8 8 8 8 7 7 7 7 7 6 6 6 6 5 5 6 6 6 6 6 6 6 6 6 6 7 7 6 6 6 6 6 6 6 5 5 5 5 5 5 5 5 4 4 4 4 4 4 4 4 4 4 4 4 4 3
9 9 9 9 9 9 9 9 8 8 8 8 8 8 7 7 7 7 7 6 6 6 6 6 5 5 5 5 5 5 6 6 6 6 6 6 6 6 6 6 6 6 6 6 6 6 5 5 5 5 5 4 4 4 4 4 4 4 4 4 4 4 4 4 4 4 3 3 3
9 9 9 9 9 9 8 8 8 8 8 8 7 7 7 7 7 6 6 6 6 6 5 5 5 5 5 5 5 5 6 6 6 6 6 6 6 6 6 6 6 6 6 6 5 5 5 5 5 4 4 4 4 4 4 4 4 4 4 4 4 3 3 3 3 3 3 3 3
9 9 9 9 9 8 8 8 8 8 7 7 7 7 7 6 6 6 6 6 6 5 5 5 5 5 5 5 5 6 6 6 6 6 6 6 6 6 6 6 6 6 6 5 5 5 5 5 5 4 4 4 4 4 4 4 4 3 3 3 3 3 3 3 3 3 3 3 3
9 9 9 8 8 8 8 8 8 7 7 7 7 6 6 6 6 6 5 5 5 5 5 5 5 5 5 6 6 6 6 6 6 6 6 6 6 6 6 6 6 6 5 5 5 5 5 5 5 4 4 4 4 4 4 4 3 3 3 3 3 3 3 3 3 3 3 3 2
8 8 8 8 8 8 8 7 7 7 7 6 6 6 6 5 5 5 5 5 5 5 5 5 5 5 6 6 6 6 6 6 6 6 6 6 6 6 6 6 6 6 5 5 5 5 5 5 5 4 4 4 4 4 4 3 3 3 3 3 3 3 3 3 3 2 2 2 2
8 8 8 8 8 7 7 7 7 7 6 6 6 5 5 5 5 5 5 5 5 5 5 5 5 6 6 6 6 6 6 6 6 6 6 6 6 6 6 6 5 5 5 5 5 5 4 4 4 4 4 4 4 4 4 3 3 3 3 3 3 3 3 3 2 2 2 2 2
8 8 7 7 7 7 7 7 6 6 6 5 5 5 5 5 5 5 5 5 5 5 5 5 5 6 6 6 6 6 6 6 5 5 5 5 5 5 5 5 5 5 5 4 4 4 4 4 4 4 4 4 4 3 3 3 3 3 3 3 3 3 3 2 2 2 2 2 1
7 7 7 7 7 6 6 6 6 5 5 5 4 4 4 4 4 4 4 4 5 5 5 5 5 5 6 6 5 5 5 5 5 5 5 5 5 5 5 5 5 4 4 4 4 4 4 4 4 4 4 3 3 3 3 3 3 3 2 2 2 2 2 2 2 2 1 1 1
7 7 6 6 6 6 6 5 5 5 4 4 4 4 4 4 4 4 4 4 5 5 5 5 5 5 5 5 4 4 5 5 5 5 5 5 5 5 5 4 4 4 4 4 4 4 4 3 3 3 3 3 3 3 3 2 2 2 2 2 1 1 1 1 1 1 1 1 1
6 6 6 6 5 5 5 4 4 4 4 4 4 4 4 4 4 4 4 4 4 4 4 4 4 4 4 4 4 4 5 5 5 5 5 5 5 4 4 4 4 4 4 4 3 3 3 3 3 3 3 3 2 2 2 2 2 2 1 1 1 1 1 0 0 1 1 1 1
6 5 5 5 4 4 4 4 3 3 3 3 3 3 3 3 3 3 3 3 3 3 3 3 3 3 4 4 4 5 5 5 5 5 5 5 5 4 4 4 4 4 4 3 3 3 3 3 2 2 2 2 1 1 1 1 1 1 1 1 0 0 0 0 0 0 0 1 1
5 5 4 4 4 3 3 3 3 3 3 3 3 3 3 3 3 3 3 3 3 3 3 3 3 4 4 4 4 4 4 4 5 5 4 4 4 4 4 4 4 3 3 3 3 3 3 2 2 2 1 1 1 1 1 1 1 0 0 0 -0 -0 -0 -0 -0 0 0 0 1
4 4 4 3 3 3 3 3 3 3 3 3 3 2 2 2 3 3 3 3 3 3 3 3 4 4 4 4 4 4 4 4 4 4 4 4 4 4 3 3 3 3 3 3 3 2 2 2 1 1 1 0 0 0 0 0 0 0 -0 -0 -0 -0 -0 -0 -0 -0 0 0 0
3 3 3 3 3 2 2 2 3 3 2 2 2 3 3 3 3 3 3 3 3 3 4 4 4 4 4 4 4 4 4 4 4 4 4 3 3 3 3 3 3 3 3 2 2 2 1 1 1 1 0 -0 0 0 0 -0 -0 -0 -1 -1 -1 -1 -1 -1 -0 -0 0 0 0
2 2 2 2 2 2 2 2 2 2 2 2 3 3 3 3 3 3 3 3 3 3 4 4 4 4 3 3 3 3 3 3 3 3 3 3 3 3 3 3 3 2 2 2 1 1 1 1 1 0 0 -0 -0 -0 -0 -0 -1 -1 -1 -1 -1 -1 -1 -1 -0 -0 -0 0 0
2 1 1 1 1 2 2 2 2 2 2 2 2 2 2 2 3 3 3 3 3 3 3 3 2 2 2 2 2 2 2 2 2 2 3 3 3 3 3 2 2 2 1 1 1 1 1 1 0 0 -0 -1 -1 -1 -1 -1 -1 -1 -1 -1 -1 -1 -1 -1 -1 -0 -0 -0 -0
1 1 1 1 2 2 2 2 2 2 2 2 2 2 2 2 2 2 2 2 2 2 1 1 1 1 1 2 2 2 2 2 2 3 3 3 2 2 2 2 2 1 1 1 1 1 0 0 0 -0 -1 -1 -1 -1 -1 -1 -1 -1 -1 -1 -1 -1 -1 -1 -1 -1 -1 -1 -1
1 1 2 2 2 2 2 2 2 1 1 1 1 2 2 2 2 1 1 1 1 1 1 1 1 1 1 2 2 2 2 3 3 3 2 2 2 2 2 1 1 1 1 1 1 0 0 0 -0 -1 -1 -1 -1 -1 -1 -2 -2 -2 -2 -2 -1 -1 -1 -1 -1 -1 -1 -1 -1
1 1 1 1 1 1 1 1 1 1 1 1 1 1 1 1 1 1 1 1 0 1 1 1 1 2 2 2 3 3 3 3 2 2 2 2 2 2 1 1 1 1 1 0 0 0 -0 -0 -1 -1 -1 -1 -2 -2 -2 -2 -2 -2 -2 -2 -2 -2 -2 -2 -1 -2 -2 -2 -2
0 1 1 1 1 0 0 0 0 0 0 0 0 0 0 0 0 0 1 1 1 1 2 2 3 3 3 3 3 3 2 2 2 2 2 2 2 2 1 1 1 1 0 0 0 -0 -0 -1 -1 -1 -1 -1 -2 -2 -2 -2 -2 -2 -2 -2 -2 -2 -2 -2 -2 -2 -2 -2 -2
0 0 0 0 0 0 0 0 0 0 -0 -0 -0 0 0 0 1 1 2 2 2 3 3 3 3 3 3 3 3 2 2 2 2 2 2 2 2 2 1 1 1 1 0 0 -0 -0 -1 -1 -1 -1 -1 -2 -2 -2 -2 -2 -2 -2 -2 -2 -2 -2 -2 -2 -2 -2 -2 -2 -3
-0 -0 -0 -0 -0 -0 0 0 -0 -0 -0 -0 0 0 1 1 2 2 3 3 3 3 3 3 3 3 3 3 2 2 2 2 2 2 2 2 2 1 1 1 1 1 0 0 -0 -0 -1 -1 -1 -1 -2 -2 -2 -2 -3 -3 -3 -3 -3 -3 -2 -2 -3 -3 -3 -3 -3 -3 -3
-0 -0 -0 -0 -0 -0 -0 -0 -0 -0 0 0 1 1 2 2 3 3 3 3 4 4 3 3 3 3 3 3 2 2 2 2 2 2 2 1 1 1 1 1 1 0 0 -0 -0 -1 -1 -1 -1 -1 -2 -2 -2 -3 -3 -3 -3 -3 -3 -3 -3 -3 -3 -3 -3 -3 -3 -3 -3
-0 -0 -0 -0 -0 -0 -0 -0 -0 0 1 1 2 2 3 3 3 3 3 3 3 3 3 3 3 3 2 2 2 2 2 2 1 1 1 1 1 1 1 0 0 0 -0 -0 -1 -1 -1 -1 -1 -2 -2 -2 -2 -3 -3 -3 -3 -3 -3 -3 -3 -3 -3 -4 -4 -4 -4 -4 -4
Height
733 735 737 739 740 743 744 746 748 750 751 753 754 756 758 760 762 764 765 767 768 770 772 774 775 777 778 779 780 782 783 784 785 786 788 790 791 793 794 796 798 799 800 801 801 801 801 802 803 805 806 807 808 807 807 807 808 808 809 809 810 810 811 811 812 812 812 813 813
733 734 736 738 740 742 744 745 748 749 751 752 754 755 757 759 761 763 764 766 768 770 772 774 775 777 778 778 780 781 782 783 783 785 787 789 790 792 793 794 796 798 799 800 800 800 801 802 803 804 806 807 807 807 807 807 808 808 809 809 809 810 810 811 811 812 812 812 812
732 734 736 737 739 740 742 744 746 748 750 752 753 755 757 759 760 762 764 766 768 769 771 773 775 776 777 778 779 781 782 782 783 784 786 788 790 791 793 794 796 798 798 799 800 800 801 801 802 803 805 806 806 807 807 807 808 808 808 809 809 810 810 810 811 811 812 812 812
731 733 735 736 738 739 740 742 744 746 748 750 752 754 756 758 760 762 764 766 768 769 771 772 774 776 777 778 779 780 782 783 783 785 786 788 790 792 793 795 796 797 798 799 800 800 800 801 802 803 804 805 806 806 807 807 808 808 808 808 809 809 810 810 811 811 811 811 811
731 732 734 735 736 737 739 740 742 744 747 749 751 754 756 758 759 762 763 765 767 768 770 772 774 775 777 778 779 780 782 783 785 786 788 790 791 793 794 795 796 798 799 800 800 800 800 801 802 803 804 805 805 806 807 807 808 808 808 808 809 809 809 810 810 810 811 811 811
730 732 734 735 736 737 739 740 741 743 745 747 749 752 754 757 759 761 763 764 766 768 770 772 774 775 776 778 779 780 782 784 786 787 789 791 792 793 794 796 797 798 800 800 800 800 800 801 802 803 804 804 805 806 806 807 807 808 808 808 808 809 809 809 810 810 810 810 810
729 731 733 734 736 737 739 740 741 742 744 746 748 750 753 755 757 759 761 763 765 768 770 772 774 775 776 777 778 780 782 784 786 788 789 791 792 793 794 795 798 799 800 800 800 800 800 801 802 803 803 804 805 805 806 807 807 807 808 808 808 808 809 809 809 809 810 810 810
728 730 732 734 735 737 738 739 741 743 744 746 748 749 752 754 756 758 761 763 765 768 770 772 773 774 775 777 778 780 782 784 786 788 789 790 790 792 793 796 798 800 800 800 800 800 800 801 802 802 803 803 804 805 806 807 807 807 807 807 808 808 808 808 809 809 809 809 809
729 730 732 734 735 736 738 739 741 743 745 746 748 750 752 754 756 758 760 763 765 767 770 772 773 774 775 777 778 780 782 784 785 787 788 788 789 792 794 797 799 799 800 800 800 800 801 801 802 802 803 804 805 805 806 807 807 807 807 807 807 808 808 808 808 808 808 808 808
728 730 732 734 735 737 738 738 741 744 746 747 749 750 752 754 756 758 760 763 765 768 770 771 773 774 776 777 779 780 782 783 785 786 787 788 790 793 795 797 798 798 798 799 799 800 801 801 802 802 803 804 805 805 806 806 806 806 807 807 807 807 808 808 808 808 808 808 808
727 729 731 733 735 737 738 739 742 745 747 748 750 751 753 755 757 758 760 763 765 768 769 771 772 774 775 777 779 780 782 783 784 785 786 788 790 793 794 796 797 797 798 798 799 800 800 801 802 803 803 804 805 805 806 806 806 806 806 806 807 807 807 807 808 808 808 808 808
727 729 730 733 734 736 738 739 743 745 747 749 750 752 753 755 757 759 761 763 765 767 769 771 772 773 775 777 778 780 781 782 783 784 786 788 791 793 793 794 795 796 797 798 799 800 800 801 802 803 803 804 805 805 805 806 806 806 806 806 806 806 807 807 807 807 807 807 807
727 729 731 733 734 736 738 741 744 746 748 749 750 752 754 755 758 759 762 764 765 768 769 771 772 773 775 777 778 779 781 782 783 784 787 789 790 792 793 793 795 796 797 798 799 799 800 801 802 803 803 804 804 805 805 805 805 805 805 805 806 806 806 806 806 806 806 806 806
727 729 731 733 735 737 739 741 744 746 748 749 750 751 754 756 759 760 762 764 766 768 769 771 773 774 775 777 778 779 781 782 784 786 788 789 790 791 792 793 794 796 797 798 798 799 800 801 802 803 803 804 804 805 805 805 805 805 805 805 805 805 806 806 806 806 806 806 805
727 729 731 733 735 737 739 742 744 746 748 749 749 752 754 757 759 761 763 764 766 768 769 771 773 775 776 778 779 780 782 783 786 787 789 790 791 791 792 793 794 795 796 797 798 799 800 801 802 803 803 804 804 805 805 805 805 805 805 805 805 805 805 805 805 805 805 805 805
728 730 732 734 736 738 739 742 744 745 747 748 750 752 755 758 760 762 763 765 766 768 769 771 773 775 777 779 780 781 783 785 787 788 790 790 791 792 793 793 794 795 795 797 798 798 799 800 801 802 803 803 804 804 804 804 804 804 804 804 804 804 804 804 804 804 804 804 804
729 731 733 734 736 737 739 741 743 744 746 748 750 753 755 758 760 762 763 764 766 768 769 771 773 774 777 779 780 782 784 786 788 789 790 791 792 792 793 793 793 794 795 796 797 798 799 800 801 802 803 803 803 804 804 804 804 804 804 804 804 804 804 804 804 803 803 803 803
729 731 733 734 736 737 739 740 742 744 746 748 751 753 755 758 760 762 763 764 766 767 769 771 773 774 776 778 780 782 784 786 788 789 790 791 792 792 792 793 793 794 795 796 797 798 799 800 801 802 802 803 803 803 803 803 803 803 803 803 803 803 803 803 803 803 803 803 802
730 732 733 735 736 737 739 740 742 744 746 749 751 754 756 758 760 761 763 765 766 767 768 770 772 774 775 778 780 782 784 786 787 788 790 791 791 792 792 793 793 794 795 796 797 798 799 799 800 801 802 802 803 803 803 803 803 803 803 803 803 803 802 802 802 802 802 802 801
731 732 734 735 736 738 739 741 743 745 747 749 752 754 756 758 760 761 763 764 766 767 768 769 771 773 775 777 780 782 784 785 787 788 789 790 791 791 792 792 793 794 795 796 797 798 798 799 800 801 801 802 802 802 802 802 802 802 802 802 802 801 801 801 801 801 801 801 800
731 733 734 735 737 738 740 742 744 746 749 750 753 755 757 759 760 762 763 764 766 767 768 769 771 773 775 777 779 781 783 785 786 788 789 790 790 791 791 792 793 794 795 796 797 798 798 799 799 800 801 801 801 801 801 801 801 801 801 801 801 800 800 800 800 800 800 800 799
732 734 735 736 738 739 741 743 745 748 750 752 754 756 758 760 761 763 764 765 766 767 768 770 772 773 775 777 778 780 782 784 786 788 789 789 790 791 791 792 793 794 795 796 797 798 798 799 799 800 800 800 801 801 801 801 800 800 800 800 799 799 799 799 799 799 799 798 798
733 734 735 737 738 740 742 744 747 749 752 754 756 758 760 761 763 764 765 767 768 768 770 772 773 775 777 778 778 780 782 784 786 788 788 789 790 791 792 793 793 794 795 796 797 797 798 798 799 799 800 800 800 800 800 800 800 799 799 799 799 798 798 798 798 798 798 798 798
733 734 736 737 739 741 743 745 748 750 753 755 758 760 761 763 764 766 767 768 769 770 771 773 774 776 778 778 780 781 782 783 786 787 788 789 790 791 792 793 793 794 795 796 797 797 798 798 799 799 799 799 800 799 799 799 799 798 798 798 798 798 797 797 797 797 797 796 796
734 734 736 738 739 741 743 745 748 751 753 756 758 760 762 764 765 767 768 769 770 772 772 773 775 777 778 780 781 782 783 784 786 787 788 789 790 791 792 793 793 794 795 796 797 797 798 798 798 799 799 799 799 799 798 798 798 798 798 797 797 796 796 796 796 796 796 795 795
734 735 736 738 740 742 744 746 749 751 754 756 759 761 763 764 766 767 768 769 771 772 773 774 775 777 779 781 782 783 784 785 786 787 787 788 789 791 792 793 793 794 795 796 797 797 798 798 798 798 798 798 798 798 798 798 797 797 797 796 796 796 795 795 795 795 794 794 794
735 736 738 739 741 743 745 747 749 752 755 757 759 761 763 764 766 767 768 769 771 772 774 775 776 778 780 782 783 784 784 785 786 787 787 788 789 790 792 793 793 794 795 796 797 797 798 798 798 798 798 798 798 797 797 797 796 796 796 795 795 795 794 794 794 794 794 793 793
737 738 739 741 743 744 747 749 752 754 756 759 760 762 763 765 766 768 769 770 772 773 775 776 778 780 781 783 783 784 784 785 786 787 788 788 790 791 792 793 793 794 795 796 796 797 797 797 798 798 797 797 797 796 796 796 795 795 795 794 794 794 794 794 793 793 793 793 792
738 739 740 742 744 747 749 752 754 756 758 760 761 763 764 766 767 769 770 772 773 775 776 778 779 781 782 783 783 784 785 785 786 787 788 789 790 791 792 793 794 794 795 796 796 797 797 797 797 797 797 797 796 796 795 795 794 794 794 794 793 793 793 793 793 793 792 792 791
739 741 742 744 746 749 752 754 756 757 759 761 762 763 765 766 768 771 772 773 775 776 777 778 779 780 781 782 783 784 785 786 787 788 788 789 790 791 792 793 794 794 795 796 796 796 796 796 796 796 796 796 795 795 794 794 794 793 793 793 793 793 793 793 792 792 791 791 791
741 742 744 746 749 751 754 756 757 758 759 761 763 764 766 768 770 772 773 774 775 776 777 778 778 780 781 782 783 785 786 787 788 788 789 790 791 792 793 793 794 794 795 795 796 796 796 796 796 796 796 795 795 794 794 793 793 793 793 793 792 792 792 792 791 791 791 790 790
743 744 745 748 750 753 755 757 758 759 760 762 764 765 767 769 771 773 773 774 775 776 777 778 779 780 782 783 784 786 787 788 789 789 790 791 791 792 793 793 794 794 794 795 795 795 795 795 795 795 795 794 794 793 793 793 792 792 792 792 792 792 791 791 791 790 790 789 789
744 746 748 750 752 754 756 758 759 760 762 763 764 766 768 769 771 772 773 774 775 776 777 778 779 780 782 783 785 786 788 789 789 790 791 791 792 792 793 793 793 794 794 794 795 795 795 795 795 794 794 793 793 793 792 792 792 792 791 791 791 791 791 791 790 790 789 789 789
746 748 750 752 754 756 757 758 759 761 762 763 765 766 768 769 771 772 773 774 775 776 777 778 780 781 783 784 786 787 788 789 790 790 791 791 791 792 792 793 793 793 794 794 794 794 794 794 794 794 793 793 792 792 792 791 791 791 791 791 791 790 790 790 790 789 789 788 788
749 750 752 754 755 756 757 758 759 761 763 764 766 767 768 769 770 772 773 774 776 777 778 780 781 783 784 786 787 788 789 789 790 790 791 791 791 791 792 792 793 793 793 793 794 794 794 794 793 793 793 792 792 791 791 791 791 790 790 790 790 790 790 789 789 789 788 788 788
751 752 754 755 756 757 757 759 760 762 763 765 766 768 769 770 771 772 773 774 776 778 780 781 783 784 785 787 788 788 789 789 789 790 790 790 791 791 792 792 792 793 793 793 793 793 793 793 793 793 792 791 791 791 791 790 790 790 790 790 789 789 789 789 788 788 788 788 788
753 754 755 756 756 757 759 760 761 763 765 766 768 769 770 771 772 773 774 776 777 779 780 782 783 784 786 787 788 788 788 789 789 789 790 790 790 791 791 792 792 792 793 793 793 793 793 793 792 792 791 791 791 790 790 790 790 789 789 789 789 789 788 788 788 788 788 787 787
755 756 756 757 758 759 760 761 763 764 766 768 769 770 772 773 774 775 776 777 778 779 781 782 783 785 786 787 787 788 788 788 789 789 789 790 790 791 791 792 792 792 792 792 792 792 792 792 792 792 791 790 790 790 790 789 789 789 789 788 788 788 788 788 788 788 787 787 786
757 757 758 759 759 761 762 763 764 766 768 769 771 772 773 774 775 776 777 778 779 780 781 783 784 785 786 786 787 787 788 788 788 789 789 790 790 791 791 791 791 791 792 792 792 792 792 791 791 791 791 790 790 789 789 789 789 788 788 788 788 788 788 788 787 787 787 786 786
759 759 760 760 761 762 763 765 766 768 769 770 772 773 774 775 776 777 778 779 780 781 782 783 784 785 785 786 786 787 788 788 788 789 789 790 790 790 791 791 791 791 791 791 791 791 791 791 791 791 790 790 789 789 789 788 788 788 788 788 788 788 788 787 787 786 786 785 785
760 761 762 762 763 763 765 766 768 770 771 772 773 774 774 775 776 778 778 780 781 782 782 783 784 785 785 786 786 787 787 788 788 789 789 789 790 790 790 790 790 790 790 790 791 791 791 791 791 790 790 789 789 789 788 788 788 788 788 788 788 788 787 787 786 786 785 785 784
Wind_Speed
32 33 33 33 32 30 29 28 28 29 29 29 29 29 29 29 28 27 27 27 27 27 26 27 27 29 31 33 34 34 34 33 33 33 32 31 30 29 28 26 25 24 23 21 19 18 17 17 16 15 14 13 12 11 10 9 9 10 10 10 10 9 8 7 6 6 5 4 4
32 33 33 32 31 29 28 28 27 28 28 29 29 29 29 29 28 28 27 27 27 27 27 27 27 29 31 34 35 35 34 34 34 34 32 31 30 29 28 27 25 24 23 21 19 19 18 17 16 16 15 13 12 11 10 9 9 9 10 10 9 8 7 6 6 6 6 6 5
32 32 32 31 30 29 28 28 28 29 29 29 29 29 29 28 28 27 27 27 26 26 27 27 28 29 31 34 34 34 34 34 34 34 33 32 31 29 28 27 25 24 22 20 19 19 18 17 16 16 15 14 12 11 10 9 9 9 9 9 8 7 6 5 5 6 6 7 6
33 32 32 32 32 31 31 30 30 31 31 29 29 28 28 27 27 27 27 26 27 27 27 28 28 29 31 33 34 34 33 33 34 34 33 32 30 29 27 26 25 23 21 19 19 18 18 17 16 15 14 13 12 11 10 9 9 9 9 8 7 6 5 5 5 6 6 6 6
32 32 32 32 33 33 32 31 32 32 31 30 29 28 28 27 26 26 26 27 27 27 28 30 29 29 30 32 33 33 32 32 32 32 32 31 29 28 26 25 23 21 20 19 19 18 17 16 16 15 14 13 12 11 9 9 8 8 8 8 7 6 5 5 5 5 5 5 5
33 32 32 32 32 31 30 31 33 33 31 30 30 29 28 27 26 26 26 26 28 29 29 30 29 29 30 31 32 32 32 32 32 32 31 30 28 27 25 23 21 20 20 19 18 18 17 16 16 15 13 12 11 10 9 7 7 7 7 7 7 6 5 5 5 4 4 4 5
33 32 31 31 31 30 29 30 32 32 31 30 30 30 29 28 27 28 28 28 29 29 29 28 28 29 30 31 32 32 32 32 32 31 31 30 28 26 24 22 21 20 20 19 18 17 17 16 16 15 13 12 11 9 8 7 6 6 6 6 6 5 5 4 4 4 4 4 5
31 31 31 31 31 30 30 31 31 31 30 29 30 30 30 29 29 28 28 28 30 30 29 28 28 29 31 32 32 32 32 32 32 31 31 29 27 25 23 22 22 21 19 18 17 17 16 16 15 15 13 12 10 9 8 6 5 5 6 6 6 5 4 4 4 5 5 5 5
29 30 30 30 30 30 31 32 32 30 29 28 29 30 29 29 29 29 29 29 30 30 29 28 28 30 32 33 33 33 33 33 32 31 30 28 27 25 24 24 22 21 19 17 16 16 16 15 14 14 12 11 11 9 8 7 5 5 6 6 6 5 5 5 6 6 6 6 6
29 29 29 29 29 30 31 32 32 31 29 28 29 29 28 28 29 30 30 29 30 30 29 29 30 31 32 32 33 33 33 33 32 30 29 27 27 26 26 25 23 21 19 17 16 15 15 14 14 13 12 11 10 9 8 6 5 5 5 5 6 6 6 6 6 6 6 6 6
30 30 30 29 29 30 31 31 30 29 28 28 28 28 28 28 29 30 30 30 30 29 29 30 31 33 33 33 33 33 33 32 31 30 28 27 27 27 26 24 22 20 18 17 16 15 14 14 13 12 11 10 9 8 7 5 4 4 4 4 4 4 5 5 5 6 6 6 7
30 30 30 30 30 30 30 29 28 27 27 27 27 27 27 28 30 31 31 30 30 29 29 30 32 33 33 32 32 32 32 32 31 30 29 28 28 27 25 23 21 19 18 17 15 14 14 13 12 11 10 9 7 6 5 4 3 2 2 2 2 3 4 4 5 5 6 6 7
30 30 30 30 31 30 29 28 26 26 26 27 27 27 27 28 29 30 30 29 29 28 29 30 30 31 31 31 31 31 31 31 31 30 29 28 27 25 24 22 20 19 18 16 15 14 13 12 11 10 9 8 7 5 4 3 3 2 2 2 3 4 4 5 5 6 6 7 7
30 30 30 30 30 29 27 26 25 25 26 27 27 27 27 28 29 29 29 28 28 28 29 29 28 28 29 30 30 31 31 31 30 30 29 27 26 24 23 21 20 19 18 16 15 13 12 11 10 9 8 8 7 6 5 4 4 4 4 4 5 5 5 6 6 7 7 8 8
30 30 30 30 29 27 26 25 25 25 26 26 27 27 28 28 28 28 28 28 28 28 28 28 27 26 27 28 29 30 30 29 29 28 27 26 24 23 22 21 20 19 18 16 15 13 12 11 10 9 9 8 8 7 7 6 6 5 5 5 6 6 6 6 7 7 8 9 9
29 30 30 29 27 26 25 25 25 25 26 27 27 27 28 27 27 27 27 28 28 28 28 27 26 26 26 27 28 29 29 28 27 26 26 25 24 23 22 21 20 19 17 16 15 13 12 11 10 9 9 8 8 7 7 7 6 6 6 6 6 6 6 7 7 8 9 9 10
29 29 28 27 27 26 26 25 25 26 26 27 27 27 27 27 27 27 27 28 28 28 28 27 26 26 27 27 28 28 28 27 27 26 25 25 24 23 22 20 19 18 17 16 15 13 12 11 9 8 8 7 6 6 5 5 4 4 4 5 5 6 7 7 8 9 9 10 11
29 28 27 26 26 26 26 26 26 27 27 28 28 27 27 27 27 27 27 28 28 28 28 27 27 27 28 29 29 28 28 28 27 26 25 24 23 22 21 20 19 17 16 15 14 13 12 10 9 7 6 5 4 3 3 2 2 3 4 4 5 6 7 8 8 9 10 11 11
27 26 26 26 27 27 27 27 28 28 28 28 28 27 27 27 27 27 27 28 28 29 29 28 28 29 30 30 30 29 29 29 28 27 25 24 23 22 21 20 18 17 16 15 13 12 10 9 8 7 6 5 4 3 3 2 3 3 4 5 6 6 7 8 8 9 10 10 11
26 25 26 27 27 27 28 28 28 29 28 28 28 28 27 27 28 28 28 28 29 29 30 31 31 31 32 32 31 30 29 29 28 26 24 23 22 21 21 19 18 16 15 13 12 11 9 8 7 6 6 5 4 4 4 4 4 5 5 6 6 7 7 7 8 8 9 9 10
25 25 26 27 28 28 28 28 28 28 28 28 28 28 28 28 28 28 29 29 30 31 32 33 33 33 33 33 32 31 29 28 26 25 24 23 22 21 20 18 17 15 14 12 11 9 8 7 6 6 5 5 5 5 5 5 6 6 7 7 8 8 8 8 9 9 9 9 9
26 26 27 27 28 28 28 28 28 28 27 27 28 28 28 28 28 29 30 30 31 32 33 34 34 34 33 33 32 30 29 27 25 24 23 22 21 19 18 16 15 14 12 11 9 8 7 5 4 4 4 4 4 5 5 6 6 7 7 8 9 9 10 10 10 10 10 10 10
27 27 28 28 28 28 28 28 28 27 27 27 27 27 28 28 29 30 31 31 32 33 33 33 33 33 32 32 31 30 29 27 25 23 22 21 20 18 17 15 14 13 11 10 8 7 5 4 3 2 2 3 4 5 5 6 7 7 8 9 10 10 11 11 12 11 11 11 11
28 28 28 28 29 29 29 29 28 28 28 27 27 27 28 29 30 31 31 31 32 32 32 32 32 31 31 30 29 29 28 27 25 23 22 20 19 18 16 15 13 12 10 9 7 6 5 3 2 1 1 2 3 4 5 6 6 7 8 9 10 10 11 11 11 11 11 10 10
28 29 29 30 30 30 30 30 29 29 28 28 28 28 28 29 30 30 31 31 31 31 31 31 31 30 30 29 28 27 26 26 25 23 22 20 18 17 15 14 12 11 9 8 6 5 4 2 1 0 1 2 3 4 5 5 6 7 8 9 10 10 11 11 11 10 9 9 8
29 30 30 31 31 31 30 30 30 29 29 28 28 28 28 28 29 30 31 31 31 30 30 30 30 29 28 27 27 26 25 24 23 22 21 20 18 16 14 13 11 9 8 7 5 4 3 2 1 2 3 4 5 5 6 6 7 7 8 9 10 11 11 11 10 9 8 8 7
29 30 30 30 30 30 30 29 29 29 28 28 28 28 27 28 29 30 30 30 30 30 29 29 28 28 27 27 26 25 24 23 22 20 19 18 17 15 13 11 10 8 7 6 5 4 3 2 2 3 4 5 5 6 7 7 8 9 9 10 10 10 11 11 10 10 9 8 8
28 29 29 29 29 29 29 29 28 28 27 27 27 27 27 28 29 29 29 29 30 29 29 28 28 28 27 27 26 24 23 22 20 19 18 16 15 14 12 10 8 7 6 4 3 2 2 2 2 2 3 4 6 7 8 8 9 10 10 10 10 10 10 10 9 9 10 10 10
28 28 28 28 28 28 27 27 27 27 27 27 27 27 28 29 29 29 29 29 29 29 28 28 28 28 27 26 25 23 22 20 19 17 16 15 13 12 10 9 7 6 4 3 2 1 1 2 3 3 3 4 6 7 8 9 10 10 10 10 10 9 9 9 9 9 10 11 11
27 27 28 28 27 27 26 26 26 26 27 27 28 29 29 30 29 29 29 29 29 28 28 28 28 27 26 25 24 22 21 19 17 16 14 13 12 10 9 7 6 4 3 2 1 1 2 3 4 4 4 4 6 7 8 9 10 10 10 10 9 8 8 9 9 10 11 11 12
26 27 27 27 27 26 25 25 26 27 27 27 29 29 29 29 29 28 28 28 28 28 28 28 27 27 26 24 22 21 20 18 16 14 12 11 10 8 7 5 4 3 2 2 1 1 2 3 4 5 5 5 6 8 9 9 9 9 9 8 8 7 8 9 10 11 11 12 12
26 27 27 27 26 25 25 25 26 27 27 28 28 29 28 28 28 27 27 28 28 28 27 27 27 26 24 22 21 19 18 16 14 12 11 9 8 7 5 4 4 3 2 2 2 1 2 3 4 5 5 5 7 8 9 9 9 8 8 7 7 7 8 9 10 11 11 11 10
26 27 27 26 26 25 26 26 26 26 27 28 28 28 29 28 28 28 28 28 28 27 27 26 25 24 23 21 19 18 16 15 13 11 9 8 7 6 5 4 3 3 3 3 3 2 2 3 5 5 5 6 8 9 10 9 8 7 7 6 6 6 7 8 9 10 10 9 9
25 26 26 26 26 26 26 26 26 27 27 28 28 29 30 30 29 29 28 27 27 26 25 24 23 22 20 19 18 17 15 13 12 10 9 7 7 6 5 4 4 4 4 4 3 2 3 4 5 5 6 7 9 10 10 10 8 7 6 5 5 6 7 8 9 9 9 8 8
25 25 25 25 25 26 26 26 27 28 28 28 29 29 30 30 29 29 28 27 26 24 23 22 21 20 19 18 16 15 14 12 10 9 8 7 7 7 7 6 5 5 4 4 3 2 3 4 5 5 6 7 9 10 10 10 8 7 6 5 5 6 7 8 8 8 8 8 8
23 24 24 25 25 25 26 27 27 28 28 28 28 28 28 28 28 28 27 26 25 24 23 22 21 20 19 17 15 13 12 11 9 9 8 8 8 8 8 7 6 5 4 3 2 2 3 4 4 5 6 8 9 10 10 9 8 6 5 5 6 7 7 8 8 8 8 9 9
22 23 23 24 25 25 26 27 27 27 26 26 27 27 27 27 27 27 26 26 26 26 25 23 21 19 17 15 13 11 10 9 9 9 9 9 8 8 7 6 6 5 4 2 1 1 2 3 4 5 6 8 9 10 10 9 7 6 5 6 6 7 8 8 9 9 10 10 11
22 23 24 25 25 26 26 27 26 26 26 26 26 26 26 26 26 26 26 27 27 26 24 21 19 16 14 12 11 10 9 9 8 8 9 8 7 6 5 5 5 5 4 3 1 0 2 3 5 5 6 8 9 9 9 8 7 6 6 6 7 7 8 9 10 10 11 12 12
22 23 24 26 26 26 26 26 26 26 26 26 25 25 25 25 25 26 25 25 24 23 21 19 16 14 12 11 11 10 10 9 8 7 7 6 5 3 3 3 3 4 4 3 2 1 2 3 5 5 6 7 8 8 8 8 7 6 6 7 8 8 9 10 11 12 12 13 13
22 24 25 26 26 26 26 26 26 26 26 26 26 25 25 25 25 25 24 22 21 19 18 16 15 13 12 11 11 11 10 9 7 6 5 4 3 2 1 1 1 2 3 3 2 1 2 3 5 5 5 7 7 8 8 8 7 7 7 8 9 10 11 11 12 13 14 14 14
23 24 25 26 26 26 26 26 26 26 26 26 26 26 26 25 25 24 22 21 19 18 16 15 14 13 12 11 10 10 9 8 6 5 3 2 1 0 1 1 1 0 2 2 2 1 1 3 4 5 5 6 7 7 8 8 7 8 8 9 10 11 12 13 13 14 14 14 14
Wind_Direction
173 173 173 174 173 172 172 172 173 173 173 173 173 174 174 174 174 175 175 175 175 175 174 175 174 174 174 174 176 177 178 177 176 176 175 175 175 175 175 175 175 175 175 174 170 167 166 167 169 172 175 177 175 172 168 168 170 173 174 176 178 182 186 190 193 195 198 201 210
173 173 173 173 172 171 170 169 171 172 173 173 174 173 173 174 174 175 176 176 175 174 173 173 173 173 173 174 176 177 177 175 174 174 174 175 176 176 175 174 174 175 174 172 169 167 168 169 170 172 174 176 175 172 169 170 174 176 176 176 179 182 186 190 195 198 199 202 208
172 172 172 171 171 169 169 168 169 170 172 172 174 173 173 173 174 175 175 175 173 172 171 171 172 172 173 174 175 176 176 174 172 172 173 175 176 175 174 173 174 173 172 169 169 169 169 169 170 172 174 175 175 172 170 171 174 176 176 176 179 183 187 193 199 202 205 208 214
172 171 171 172 172 171 171 170 170 170 171 172 171 171 171 172 173 173 173 172 171 171 170 170 170 171 172 172 173 174 174 172 171 171 172 173 174 173 172 172 172 170 169 169 170 169 168 168 171 174 176 176 174 172 169 169 171 174 177 179 183 188 193 198 203 207 210 215 221
171 172 172 173 174 173 172 171 170 169 169 169 168 168 169 170 171 171 170 170 171 171 170 170 168 169 170 171 172 172 171 170 170 170 171 171 171 171 171 171 169 167 167 169 169 168 167 168 171 174 176 176 174 171 169 167 169 173 178 183 187 193 199 204 206 210 215 223 231
171 172 173 174 173 172 171 171 170 168 167 167 166 166 167 168 169 169 169 170 171 170 169 169 167 168 169 169 169 169 169 168 169 170 170 169 169 169 168 168 167 167 169 170 168 166 165 168 170 172 173 173 173 171 170 169 171 175 180 184 188 193 198 203 208 214 223 234 246
170 170 171 172 171 170 169 169 168 166 166 166 165 165 166 167 168 168 169 169 169 168 167 167 167 167 167 167 167 167 167 167 168 169 169 167 166 166 166 167 169 171 171 169 165 163 164 167 168 168 168 171 172 173 173 174 177 180 182 184 186 192 199 208 217 229 242 252 261
167 168 169 169 169 169 167 166 164 163 163 164 165 165 166 167 166 167 167 167 166 165 165 166 167 167 166 166 165 166 166 166 166 167 166 165 164 164 165 168 171 172 171 167 164 162 163 165 165 165 166 170 173 176 177 178 178 179 181 182 185 193 207 224 237 249 258 266 274
163 165 166 167 167 166 165 163 162 161 162 162 164 165 165 165 165 165 164 164 164 164 164 165 165 166 166 165 165 165 166 166 165 164 163 163 163 164 166 170 171 171 169 166 163 162 162 163 163 164 167 172 175 178 178 176 172 172 175 179 184 193 208 226 241 253 262 271 277
160 161 162 162 163 162 161 159 160 161 162 161 162 163 163 163 163 163 163 162 162 162 163 164 164 164 164 163 164 164 165 165 164 163 162 163 164 166 168 170 171 170 167 165 163 162 161 161 161 163 167 173 178 179 177 173 167 164 167 174 184 194 207 222 237 251 263 272 277
159 159 159 159 160 158 156 155 157 159 160 159 160 161 161 161 162 162 161 160 160 161 162 163 162 162 162 162 163 164 164 164 164 163 163 164 166 168 169 170 169 168 165 164 162 161 160 159 158 160 164 171 176 178 176 173 167 162 162 170 184 200 213 227 241 255 266 274 278
156 157 157 156 156 154 152 152 154 156 157 156 158 159 160 160 161 161 160 159 159 160 161 161 160 160 160 161 162 163 164 164 164 164 165 166 167 168 168 167 167 165 163 162 161 159 158 156 155 157 160 166 171 176 179 180 179 176 178 188 210 225 235 245 255 264 270 274 276
154 154 153 153 152 151 150 151 152 154 155 156 156 157 158 159 160 160 159 159 158 158 159 159 159 159 159 160 161 162 162 163 164 164 164 165 165 165 165 164 163 162 161 160 158 157 155 153 153 154 158 162 168 175 184 194 205 215 226 235 244 249 253 258 261 265 268 271 273
152 151 150 149 149 149 149 150 152 154 155 154 154 154 156 157 159 159 159 158 157 156 156 156 156 157 159 159 160 160 160 161 161 161 162 162 162 162 161 161 160 159 158 157 156 155 154 153 154 156 160 164 170 177 188 202 215 227 236 243 248 253 257 260 263 266 269 271 273
149 148 147 147 146 147 148 150 152 154 153 151 151 152 153 154 156 157 157 156 155 155 154 154 153 154 156 157 157 157 157 158 158 159 159 159 160 160 160 159 158 157 156 155 155 155 156 156 159 163 167 172 178 185 193 205 216 226 236 244 251 256 262 266 269 271 274 275 277
145 145 145 145 145 147 148 149 150 151 150 149 149 150 151 153 154 155 154 153 153 152 152 151 150 150 151 152 154 155 155 157 158 159 159 159 160 159 158 157 156 155 154 154 153 154 156 159 163 169 174 179 185 192 199 209 218 228 237 246 254 261 268 273 276 278 280 280 281
143 144 145 145 146 147 147 148 147 147 147 147 148 149 150 152 153 153 153 151 150 150 151 150 149 148 148 150 153 155 157 159 160 161 161 160 159 158 156 155 154 152 152 151 151 152 153 156 161 166 173 179 185 192 201 211 223 235 247 257 264 271 276 279 282 283 284 285 285
142 144 145 146 146 146 145 145 144 144 145 146 147 149 150 151 152 152 152 151 150 150 149 149 147 147 148 151 154 157 159 161 162 162 161 159 157 155 153 151 150 149 149 148 148 148 150 152 156 160 165 170 176 184 195 216 243 262 272 277 281 283 285 286 287 288 288 289 288
143 144 145 146 145 144 143 142 141 142 144 145 147 149 150 151 151 151 150 150 150 150 149 147 147 148 151 153 156 158 161 162 162 161 159 157 154 151 149 147 147 146 146 146 146 147 148 151 154 159 164 171 177 185 201 227 252 267 275 279 282 284 285 287 289 290 292 293 294
143 143 143 143 142 141 140 139 140 141 143 144 146 147 148 149 149 149 149 149 150 150 149 148 149 150 153 155 156 157 159 160 159 157 155 154 151 149 148 147 146 145 145 146 147 148 151 154 160 167 174 182 189 199 211 226 239 251 259 265 270 274 278 282 286 289 292 296 299
141 141 141 141 140 138 137 137 139 141 142 143 144 145 146 147 147 147 148 148 149 149 149 149 150 151 153 155 155 155 155 156 156 155 153 152 150 149 147 146 145 144 144 145 146 148 151 156 164 174 184 193 202 211 221 231 241 248 254 260 264 269 274 278 282 285 289 293 298
140 139 138 137 136 136 136 136 138 139 140 140 141 142 143 144 145 145 146 147 148 148 148 149 150 152 153 153 153 152 152 153 153 153 152 150 149 147 145 143 141 140 140 141 141 141 144 150 162 177 194 207 218 228 237 245 251 257 262 266 270 272 275 277 280 282 285 289 292
137 136 134 134 134 134 135 136 137 137 137 138 139 140 141 141 143 144 145 146 147 147 147 148 150 151 152 152 152 151 151 150 151 150 150 148 145 143 140 137 136 135 134 133 132 132 135 141 154 176 207 229 239 248 256 262 267 271 276 279 280 280 280 280 281 283 286 288 291
134 133 133 132 133 133 133 134 135 136 136 137 138 138 139 140 141 142 143 144 144 145 145 146 147 148 149 150 151 151 150 149 148 148 147 144 141 137 134 132 130 128 127 126 125 125 126 133 145 169 222 256 267 271 274 278 282 286 289 290 291 290 289 287 286 286 289 292 295
133 133 132 133 134 133 133 134 135 135 136 136 137 138 138 139 140 141 141 141 142 143 143 143 144 146 147 148 150 150 149 148 147 146 143 140 135 131 128 126 124 123 121 119 117 115 114 115 117 148 292 294 293 292 290 293 295 298 301 301 301 300 299 296 293 291 292 296 301
132 132 133 133 134 134 134 135 135 135 135 136 137 137 138 138 139 139 139 139 140 141 141 141 143 145 147 148 149 148 148 147 146 144 140 135 131 127 124 121 119 116 113 110 105 99 88 71 24 336 317 308 304 302 302 304 306 307 308 308 308 307 306 304 302 299 297 298 305
131 131 132 133 133 133 133 133 134 134 135 136 137 137 138 138 138 138 138 138 138 139 140 141 143 145 147 149 148 147 146 145 143 139 136 131 128 124 121 116 113 109 105 100 92 81 65 39 2 333 317 310 306 306 307 308 310 311 311 311 311 310 310 310 310 308 306 305 307
130 130 130 130 130 130 131 132 133 134 135 136 136 137 137 136 137 136 136 137 137 138 139 141 144 146 147 147 146 144 142 140 138 134 130 126 123 119 115 111 107 103 100 96 88 71 44 19 1 344 325 314 306 305 307 308 310 311 312 312 312 313 313 314 315 315 315 313 312
128 127 127 127 127 128 130 131 133 134 135 135 136 136 136 136 136 136 136 137 137 138 139 141 143 144 143 141 140 138 136 134 133 130 126 122 118 113 108 105 102 101 102 103 94 52 11 2 2 1 347 322 308 304 306 309 310 311 311 312 313 315 318 320 321 321 320 319 317
125 125 125 125 126 128 130 133 134 134 134 134 135 135 135 135 135 136 137 137 137 139 140 141 141 139 137 136 134 133 132 130 128 126 123 120 116 112 107 103 105 110 123 142 178 308 344 354 357 0 356 334 315 310 310 312 312 312 312 314 316 319 323 325 326 325 324 323 321
124 124 124 125 126 128 131 133 133 133 133 133 134 134 134 134 134 135 136 137 137 137 138 138 136 133 132 131 129 129 128 127 124 122 120 119 118 115 112 110 115 127 153 185 219 269 327 345 348 354 354 341 322 317 317 317 316 314 314 316 320 325 328 329 329 328 327 326 326
123 123 124 125 127 129 131 131 131 132 132 132 132 132 132 132 133 134 135 135 134 134 134 133 131 128 127 126 125 125 125 124 124 123 122 122 123 122 120 119 124 141 170 197 217 248 305 331 340 348 350 339 326 323 324 323 321 317 316 318 323 329 334 334 334 332 331 331 332
123 124 125 127 129 131 132 131 130 130 130 131 131 131 131 132 133 133 133 133 134 133 132 131 129 128 127 126 125 125 125 125 125 125 125 126 128 129 129 130 140 162 185 201 219 248 297 324 337 346 346 335 327 328 330 329 325 321 319 321 329 336 339 340 338 337 336 337 338
125 127 128 130 131 132 132 131 130 130 130 130 131 133 134 135 135 134 134 135 135 135 134 133 131 129 129 128 128 127 128 129 129 128 128 129 133 138 144 151 166 183 196 205 224 258 299 323 339 348 344 331 328 330 333 333 330 327 326 331 340 345 347 345 342 341 342 343 342
128 129 131 132 132 132 131 130 130 131 132 132 133 135 138 139 138 138 137 137 137 135 134 133 132 131 130 130 131 132 132 131 130 128 128 133 141 149 156 165 177 187 197 211 236 273 308 331 349 352 342 330 328 330 333 335 334 334 337 345 352 354 352 348 345 344 344 343 340
129 130 130 130 129 128 128 129 131 132 133 133 134 136 138 139 140 139 138 138 136 134 133 133 132 132 131 132 133 133 131 129 127 128 133 142 151 157 162 167 173 180 192 215 250 291 325 348 3 358 342 329 328 331 334 337 339 342 349 357 360 358 352 348 344 342 340 337 335
128 128 128 126 125 126 128 130 131 132 132 133 134 136 136 137 137 138 138 137 137 136 135 134 134 133 133 132 131 129 125 122 126 134 144 151 157 161 165 168 173 178 183 195 234 319 354 5 11 0 341 329 329 333 338 341 344 351 358 2 360 355 350 344 341 337 334 331 330
127 127 126 126 126 127 129 130 131 131 131 132 134 135 135 136 137 138 140 140 139 138 137 136 134 132 131 129 127 125 124 125 133 142 150 153 155 159 166 174 182 186 184 176 168 62 16 11 12 3 345 333 334 338 343 346 352 358 2 359 354 349 344 340 336 333 330 329 328
125 126 128 128 129 130 130 131 131 131 132 133 134 135 136 137 139 141 142 141 139 137 136 135 133 132 130 129 130 132 136 140 143 147 149 149 145 146 157 175 186 189 185 176 165 110 18 11 12 5 349 338 340 343 347 351 356 359 358 353 348 343 339 336 334 331 330 329 330
126 128 130 131 131 131 131 131 132 133 135 136 137 138 139 140 141 141 141 140 138 136 134 134 135 135 135 135 137 141 145 147 148 149 148 143 137 128 124 140 169 181 182 179 170 131 18 12 12 7 355 344 344 346 350 354 357 358 355 350 346 342 338 335 334 333 332 333 334
130 131 132 132 132 132 131 132 133 135 137 138 139 140 141 141 141 141 141 140 138 137 136 136 138 138 138 137 138 140 142 146 148 151 151 152 148 54 2 359 2 201 194 195 196 204 3 6 10 10 3 351 346 347 352 357 358 356 353 349 345 342 339 336 335 334 334 335 336